Weather History for Bratislava, Slovakia

Change the Weather History Date:

Thursday, September 12, 2013

  Actual Average Record
Temperature  
Mean Temperature 61 °F -  
Max Temperature 69 °F 63 °F 82 °F (2011)
Min Temperature 53 °F 47 °F 48 °F (1997)
Degree Days  
Heating Degree Days 4    
Growing Degree Days 11 (Base 50)    
Moisture  
Dew Point 49 °F    
Average Humidity 68    
Maximum Humidity 94    
Minimum Humidity 33    
Precipitation  
Precipitation 0.08 in - - ()
Sea Level Pressure  
Sea Level Pressure 29.97 in    
Wind  
Wind Speed 5 mph ()    
Max Wind Speed 16 mph    
Max Gust Speed 23 mph    
Visibility 9.6 miles    
Events Rain    
Averages and records for this station are not official NWS values.
T = Trace of Precipitation, MM = Missing Value Source: Averaged Metar Reports

Daily Weather History Graph

Daily Weather History Graph

Search for Another Location

Airport:

Trip Planner

Search our weather history database for the weather conditions in past years. The results will help you decide how hot, cold, wet, or windy it might be!

Date:

Astronomy

Sep. 12, 2013 Rise Set
Actual Time 6:24 AM CEST 7:09 PM CEST
Civil Twilight 5:52 AM CEST 7:41 PM CEST
Nautical Twilight 5:14 AM CEST 8:18 PM CEST
Astronomical Twilight 4:35 AM CEST 8:58 PM CEST
Moon 2:04 PM CEST (9/12) 11:16 PM CEST (9/12)
Length of Visible Light 13h 48m
Length of Day
12h 45m
Waxing Crescent, 47% of the Moon is Illuminated
Sep 12
Waxing Crescent
Sep 12
First Quarter
Sep 19
Full
Sep 27
Last Quarter
Oct 5
New

Hourly Weather History & Observations

Time (CEST) Temp. Dew Point Humidity Pressure Visibility Wind Dir Wind Speed Gust Speed Precip Events Conditions
12:00 AM 55 °F 51 °F 83% 29.98 in 12 mi 2.2 mph - -   Mostly Cloudy
12:00 AM 55.4 °F 51.8 °F 88% 29.98 in - East 2.3 mph - N/A   Clear
12:30 AM 55.4 °F 51.8 °F 88% 29.98 in - Calm Calm - N/A   Clear
1:00 AM 55 °F 52 °F 87% 29.98 in 12 mi SW 2.2 mph - -   Mostly Cloudy
1:00 AM 55.4 °F 51.8 °F 88% 29.98 in - SSW 2.3 mph - N/A   Clear
1:30 AM 55.4 °F 51.8 °F 88% 29.98 in - Calm Calm - N/A   Clear
2:00 AM 54 °F 51 °F 87% 29.98 in 12 mi NNE 2.2 mph - -   Mostly Cloudy
2:00 AM 53.6 °F 51.8 °F 94% 29.98 in - NNE 1.2 mph - N/A   Clear
2:30 AM 55.4 °F 51.8 °F 88% 29.95 in - Variable 1.2 mph - N/A   Clear
3:00 AM 54 °F 51 °F 87% 29.98 in 12 mi Calm Calm - -   Mostly Cloudy
3:00 AM 53.6 °F 51.8 °F 94% 29.95 in - Calm Calm - N/A   Clear
3:30 AM 57.2 °F 50.0 °F 77% 29.95 in - Variable 2.3 mph - N/A   Clear
4:00 AM 57 °F 49 °F 67% 29.98 in 12 mi WNW 8.9 mph - -   Partly Cloudy
4:00 AM 57.2 °F 48.2 °F 72% 29.98 in - WNW 6.9 mph - N/A   Clear
4:30 AM 57.2 °F 46.4 °F 67% 29.98 in - West 8.1 mph - N/A   Clear
5:00 AM 57 °F 48 °F 63% 29.97 in 16 mi West 8.9 mph - -   Partly Cloudy
5:00 AM 57.2 °F 48.2 °F 72% 29.95 in - WNW 8.1 mph - N/A   Clear
5:30 AM 57.2 °F 48.2 °F 72% 29.95 in - West 6.9 mph - N/A   Clear
6:00 AM 57 °F 49 °F 65% 29.98 in 19 mi WNW 11.2 mph - -   Mostly Cloudy
6:00 AM 57.2 °F 48.2 °F 72% 29.98 in - WNW 10.4 mph - N/A   Clear
6:30 AM 55.4 °F 48.2 °F 77% 29.98 in - NW 8.1 mph - N/A   Clear
7:00 AM 57 °F 49 °F 65% 29.97 in 19 mi West 6.7 mph - -   Mostly Cloudy
7:00 AM 57.2 °F 48.2 °F 72% 29.95 in - West 6.9 mph - N/A   Clear
7:30 AM 57.2 °F 48.2 °F 72% 29.98 in - WNW 6.9 mph - N/A   Clear
8:00 AM 58 °F 48 °F 61% 29.98 in 19 mi WNW 6.7 mph - -   Scattered Clouds
8:00 AM 57.2 °F 48.2 °F 72% 29.98 in - WNW 6.9 mph - N/A   Clear
8:30 AM 59.0 °F 48.2 °F 67% 29.95 in - WNW 8.1 mph - N/A   Clear
9:00 AM 59 °F 48 °F 57% 29.96 in 19 mi WNW 6.7 mph - -   Scattered Clouds
9:00 AM 59.0 °F 48.2 °F 67% 29.95 in - WNW 5.8 mph - N/A   Clear
9:30 AM 62.6 °F 46.4 °F 55% 29.95 in - WNW 6.9 mph - N/A   Clear
10:00 AM 64 °F 47 °F 42% 29.96 in 28 mi WNW 8.9 mph - -   Scattered Clouds
10:00 AM 64.4 °F 46.4 °F 52% 29.95 in 6.2 mi WNW 9.2 mph - N/A   Partly Cloudy
10:30 AM 64.4 °F 46.4 °F 52% 29.95 in 6.2 mi WNW 9.2 mph - N/A   Partly Cloudy
11:00 AM 65 °F 47 °F 42% 29.97 in 28 mi West 11.2 mph - -   Scattered Clouds
11:00 AM 66.2 °F 46.4 °F 49% 29.98 in 6.2 mi West 11.5 mph - N/A   Partly Cloudy
11:30 AM 66.2 °F 48.2 °F 52% 29.95 in 6.2 mi NW 10.4 mph - N/A   Partly Cloudy
12:00 PM 67 °F 47 °F 38% 29.96 in 28 mi WNW 13.4 mph - -   Partly Cloudy
12:00 PM 66.2 °F 46.4 °F 49% 29.95 in 6.2 mi WNW 12.7 mph - N/A   Scattered Clouds
12:30 PM 68.0 °F 46.4 °F 46% 29.95 in 6.2 mi WNW 11.5 mph - N/A   Scattered Clouds
1:00 PM 67 °F 47 °F 37% 29.95 in 28 mi NW 11.2 mph - -   Partly Cloudy
1:00 PM 68.0 °F 44.6 °F 43% 29.95 in 6.2 mi NW 11.5 mph - N/A   Scattered Clouds
1:30 PM 68.0 °F 44.6 °F 43% 29.95 in 6.2 mi NNW 8.1 mph - N/A   Scattered Clouds
2:00 PM 67 °F 44 °F 33% 29.94 in 28 mi NNW 6.7 mph - -   Scattered Clouds
2:00 PM 68.0 °F 44.6 °F 43% 29.95 in 6.2 mi NNW 6.9 mph - N/A   Scattered Clouds
2:30 PM 66.2 °F 46.4 °F 49% 29.92 in 6.2 mi WNW 3.5 mph - N/A   Mostly Cloudy
3:00 PM 68 °F 47 °F 36% 29.93 in 25 mi NW 4.5 mph - -   Mostly Cloudy
3:00 PM 68.0 °F 46.4 °F 46% 29.92 in 6.2 mi NW 4.6 mph - N/A   Mostly Cloudy
3:30 PM 68.0 °F 46.4 °F 46% 29.92 in 6.2 mi WSW 3.5 mph - N/A   Mostly Cloudy
4:00 PM 67 °F 47 °F 37% 29.93 in 25 mi 2.2 mph - -   Mostly Cloudy
4:00 PM 66.2 °F 48.2 °F 52% 29.92 in 6.2 mi Variable 3.5 mph - N/A   Mostly Cloudy
4:30 PM 64.4 °F 48.2 °F 56% 29.95 in 6.2 mi WSW 8.1 mph 23.0 mph N/A   Mostly Cloudy
5:00 PM 59 °F 49 °F 62% 29.96 in 6 mi NW 15.7 mph - - Rain Light Rain Showers
5:00 PM 59.0 °F 50.0 °F 72% 29.95 in 6.2 mi NW 16.1 mph - N/A Rain Light Rain Showers
5:30 PM 57.2 °F 51.8 °F 82% 29.95 in 6.2 mi WNW 15.0 mph - N/A Rain Light Rain Showers
6:00 PM 57 °F 52 °F 79% 29.97 in 16 mi 4.5 mph - - Rain Light Rain Showers
6:00 PM 57.2 °F 51.8 °F 82% 29.95 in 6.2 mi NW 3.5 mph - N/A Rain Light Rain Showers
6:30 PM 57.2 °F 53.6 °F 88% 29.95 in 6.2 mi West 1.2 mph - N/A   Mostly Cloudy
7:00 PM 57.2 °F 53.6 °F 88% 29.95 in 6.2 mi Variable 3.5 mph - N/A Rain Light Rain
7:30 PM 57.2 °F 55.4 °F 94% 29.95 in 6.2 mi SW 3.5 mph - N/A   Mostly Cloudy
8:00 PM 56 °F 53 °F 87% 29.98 in 12 mi WSW 8.9 mph - - Rain Light Rain
8:00 PM 55.4 °F 53.6 °F 94% 29.98 in - WSW 8.1 mph - N/A   Clear
8:30 PM 55.4 °F 53.6 °F 94% 29.98 in - WSW 8.1 mph - N/A   Clear
9:00 PM 56 °F 53 °F 87% 29.99 in 12 mi SW 4.5 mph - -   Mostly Cloudy
9:00 PM 55.4 °F 53.6 °F 94% 29.98 in - WSW 5.8 mph - N/A   Clear
9:30 PM 55.4 °F 53.6 °F 94% 29.98 in 6.2 mi SW 4.6 mph - N/A   Scattered Clouds
10:00 PM 57 °F 49 °F 65% 30.01 in 16 mi West 11.2 mph - -   Scattered Clouds
10:00 PM 57.2 °F 48.2 °F 72% 30.01 in 6.2 mi West 11.5 mph - N/A   Partly Cloudy
10:30 PM 55.4 °F 48.2 °F 77% 30.01 in - NW 9.2 mph - N/A   Clear
11:00 PM 55 °F 48 °F 70% 30.01 in 16 mi WNW 11.2 mph - -   Scattered Clouds
11:00 PM 55.4 °F 48.2 °F 77% 30.01 in - WNW 10.4 mph - N/A   Clear
11:30 PM 55.4 °F 48.2 °F 77% 30.01 in - WNW 10.4 mph - N/A   Clear